Regional Weather Roundup
Issued by NWS

Home | Current Version | Previous Version | Graphics & Text | Print | Product List | Glossary On
Versions: 1 2 3 4 5 6 7 8 9 10 11 12 13 14 15 16 17 18 19 20 21 22 23 24 25 26 27
000
ASUS45 KSLC 210210
RWRUT

UTAH REGIONAL WEATHER ROUNDUP
NATIONAL WEATHER SERVICE SALT LAKE CITY UT
800 PM MDT THU JUL 20 2017

UTZ001>011-023>025-210300-

NORTHERN UTAH

CITY           SKY/WX    TMP DP  RH WIND       PRES   REMARKS
BRIGHAM CITY   MOCLDY    92  48  21 S9        29.95S
HILL AFB       CLOUDY    88  54  30 SE10      29.99F
LOGAN          MOCLDY    92  54  27 S9        29.96S HX  90
OGDEN          CLOUDY    91  53  27 SE10      29.95F
SALT LAKE CITY MOCLDY    93  52  24 SE15      29.94F HX  90
TOOELE VALLEY  MOCLDY    88  55  33 SE12      29.95S
WENDOVER       PTSUNNY   96  50  20 SE8       29.92S HX  93
HEBER CITY     CLOUDY    81  45  28 S16       30.09S
WEST JORDAN    MOCLDY    87  61  41 SE17G25   30.00S

$$

UTZ011>015-024>027-210300-

CENTRAL/NORTHEAST UTAH

CITY           SKY/WX    TMP DP  RH WIND       PRES   REMARKS
PROVO AIRPORT  MOCLDY    85  53  33 S14       30.03S
MOAB/CANYONLAN LGT RAIN  76  63  64 W7        30.08R
DELTA          MOCLDY    88  46  23 S12       30.02R
PRICE          CLOUDY    75  56  51 CALM      30.15S
ROOSEVELT      CLOUDY    81  46  30 S5        30.09F
VERNAL         CLOUDY    83  50  31 MISG      30.08S

$$

UTZ013>016-019>022-027-210300-

SOUTHERN UTAH

CITY           SKY/WX    TMP DP  RH WIND       PRES   REMARKS
BRYCE CANYON   PTCLDY    63  57  81 NW3       30.30S
CEDAR CITY     PTCLDY    81  48  31 S12       30.14S
MILFORD        PTCLDY    86  51  29 S18       30.06R
ST GEORGE      CLOUDY    96  48  19 W9        29.93R HX  92
HANKSVILLE     CLOUDY    73  59  60 SE17      30.09R
BLANDING       MOCLDY    79  49  34 N13G23    30.22R

$$

REGIONAL REPORTS     COLORADO/ARIZONA

CITY           SKY/WX    TMP DP  RH WIND       PRES   REMARKS
CRAIG, CO      CLOUDY    78  46  32 S12       30.17R
GRAND JUNCTION CLOUDY    84  53  34 SE14      30.06R
RIFLE, CO      CLOUDY    75  54  47 E6        30.17R
MONTROSE, CO   CLEAR     76  51  41 SE15      30.19R
CORTEZ, CO     CLOUDY    71  54  54 N5        30.18R
COLORADO CITY    N/A     90  50  25 NW10      30.12R
PAGE, AZ       MOCLDY    89  53  29 SW8       30.03R
GRAND CANYON   CLOUDY    69  57  65 VRB3      30.27S
KINGMAN, AZ    PTCLDY    88  58  36 E14G21    30.01R
FLAGSTAFF, AZ  CLOUDY    67  55  65 VRB3      30.32R

$$

REGIONAL REPORTS    NEVADA/IDAHO/WYOMING

CITY           SKY/WX    TMP DP  RH WIND       PRES   REMARKS
LAS VEGAS, NV  MOCLDY    99  52  20 SE6       29.86S HX  96
ELY, NY        TSTM      67  58  72 N15       30.17R
ELKO, NV       SUNNY     90  18   7 NW12      30.05R
POCATELLO, ID  CLEAR     84  41  21 SW13      30.01R
BURLEY, ID     SUNNY     81  42  25 W9        30.00R
FORT BRIDGER,    N/A     82  47  29 W18G24    30.22S
EVANSTON, WY   CLOUDY    75  52  44 W12       30.22S
ROCK SPRINGS,  CLOUDY    83  41  22 SW8       30.16R
KEMMERER, WY     N/A     77  46  33 W13       30.23R

$$




USA.gov is the U.S. government's official web portal to all federal, state and local government web resources and services.